shoulder
new_line
new_line
first
second
third
Al di la della Luna; Beyond the Moon; Astrophotography; Astrofotografia; Danilo Pivato
 
 
         
         
2020

Orbital Elements

Epoch 2020 December 17.0 TT = JDT 2459200.5
T 2020  December 12.66945 TT                                                                Rudenko
q   0.3986652               (2000.0)                                    P               Q
z  +0.0047615           Peri.   349.85867          -0.83282786     +0.50269119
   +/-0.0004453          Node  223.00419          -0.48108481     -0.86440543
e   0.9981018            Incl.     19.86200          -0.27377941      -0.01023783                      
 
         
         
2020.11.22
 
         
         
       
         
         
         
         
         
         

 

       
 
Since: 01/01/2004
 
           
Since: 01/11/2010